Погода в Гоме

Демократическая Республика Конго     1°40′09″S   29°12′50″E
темп.,
°C
ветер,
м/с
пор.,
м/с
влажн.,
%
обл.,
%
осадки,
мм/ч
давл.,
гПа
погр.,
м
27 ноября, сб
сб2701:00+15св118950 0.6 1016161
04:00+15св2287100 0.8 1015101
07:00+16ссв118471 1.1 1017168
10:00+22юз345959 0.3 10131078
13:00+20сз227670 2.5 1012329
16:00+19зсз118185 2.5 1011123
19:00+17всв118699 4.5 101439
22:00+16св128684 2.1 101561
28 ноября, вс
вс2801:00+15св228610 2.8 101492
04:00+15св228566 0.0 1014114
07:00+20з016570 0.0 1014321
10:00+23юз1353100 0.1 10121039
13:00+21з226586 0.6 1010409
16:00+20с117947 1.6 101084
19:00+17св218646 4.1 101450
22:00+17св118696 1.9 101564
29 ноября, пн
пн2901:00+16св118881 3.1 1013128
04:00+15св228797 0.3 1014133
07:00+20сз016834 0.3 1014317
10:00+21ююз236937 1.3 1013795
13:00+19з0182100 3.6 1011162
16:00+20з117912 0.6 1010152
19:00+16св2286100 0.8 101486
22:00+16ссв228676 0.3 1014111
30 ноября, вт
вт3001:00+15св228530 0.4 1013111
04:00+15св2283100 0.1 1014108
07:00+19сз116681 0.1 1014285
10:00+21юз226985 0.8 1013763
13:00+20с347425 3.3 1010606
16:00+20сз228088 1.5 1009172
19:00+17св1186100 2.8 101384
22:00+15св228884 1.3 101499
1 декабря, ср
ср101:00+15св2285100 1.8 101398
04:00+15всв1184100 0.0 1014106
07:00+18с1175100 0.1 1014228
10:00+21зюз216691 0.5 1013772
13:00+20ю117572 2.2 1010405
16:00+19зюз1180100 2.4 1010116
19:00+17св2287100 4.8 101366
22:00+16св228785 1.1 101474